KFFO Airport (Wright-Patterson Afb) Information

FAA: FFO - ICAO: KFFO

KFFO Airport Location

State Ohio
County Greene
City Dayton
KFFO Airport is 8 miles northeast of Dayton, OH.
Latitude 39-49-33.4939N
Longitude 084-02-45.9702W
Elevation 823ft

KFFO Airport METARs

METAR KFFO 251656Z 21009KT 10SM OVC017 16/12 A2968 RMK AO2A SLP051 T01610115
Altimeter 29.68"
Temperature 16.1°C (61.0°F)
Wind 210° at 9KT
Clouds overcast at 1,700ft
Visibility 10.0mi
Time observed: 2021-10-25T16:56:00Z

KFFO Airport Details

Status Operational
Activation August 1943
Ownership Military - Air Force
Usage Private
Chart CINCINNATI
ATC on-site Yes
Beacon schedule sunset-sunrise
Beacon color clear green

KFFO Airport Contacts

Owner US AIR FORCE
Owner address WRIGHT-PATTERSON AFB, DAYTON, OH 45433
Owner phone 937-257-2131
Manager DR E.J. URBAN
Manager address PO BOX 307, CORTLAND, OH 44410
Manager phone 216-638-7466

KFFO Airport (Wright-Patterson Afb) Radio Frequencies

KFFO (Airport) Radio Frequencies

UNICOM N/A
Common traffic advisory frequency (CTAF) N/A